Location: Duncanville
(32.6518°N, 96.9083°W)
Time: 10:30:05
(UTC+00:00)

Cosmos 1777 Rocket - Pass Details

Date: 11 February 2026
Orbit: 753 x 771 km, 74.0° (Epoch: 8 March)

Event Time Altitude Azimuth Distance (km) Brightness Sun altitude
Rises 12:03:36 0° 214° (SW) 3,191 6.9 -15.4°
Reaches altitude 10° 12:06:05 10° 221° (SW) 2,269 6.1 -14.9°
Maximum altitude 12:10:54 40° 291° (WNW) 1,105 4.3 -13.9°
Drops below altitude 10° 12:15:45 10° 0° (N) 2,282 6.4 -12.9°
Sets 12:18:16 0° 8° (N) 3,212 7.2 -12.3°
